Location: Melizzano
(41.1500°N, 14.5000°E)
Time: 09:16:02
(UTC+00:00)

Cosmos 44 - Pass Details

Date: 11 May 2021
Orbit: 571 x 791 km, 65.1° (Epoch: 15 June)

Event Time Altitude Azimuth Distance (km) Brightness Sun altitude
Rises 21:44:39 0° 328° (NNW) 3,290 8.0 -28.3°
Reaches altitude 10° 21:47:07 10° 330° (NNW) 2,348 6.9 -28.5°
Enters shadow 21:51:59 70° 359° (N) 819 3.7 -28.8°
